Regional Weather Roundup
Issued by NWS New Orleans/Baton Rouge, LA

Home | Current Version | Previous Version | Text Only | Print | Product List | Glossary Off
Versions: 1 2 3 4 5 6 7 8 9 10 11 12 13 14 15 16 17 18 19 20 21 22 23 24 25 26 27 28 29 30 31 32 33 34 35 36 37 38 39 40 41 42 43 44 45 46 47 48 49 50

355
ASUS44 KLIX 260110
RWRLIX
NEW ORLEANS REGIONAL WEATHER ROUNDUP
NATIONAL WEATHER SERVICE NEW ORLEANS LA
800 PM CDT SAT OCT 25 2014

NOTE: "FAIR" INDICATES FEW OR NO CLOUDS BELOW 12,000 FEET WITH NO
      SIGNIFICANT WEATHER AND/OR OBSTRUCTIONS TO VISIBILITY.
      SKY/WX - SKY CONDITION AND SIGNIFICANT WEATHER.
      TMP - AIR TEMPERATURE.     DP    - DEWPOINT TEMPERATURE.
      RH  - RELATIVE HUMIDITY.   PRES  - PRESSURE.
      HI  - HEAT INDEX.          WCI   - WIND CHILL INDEX.

*  THESE STATIONS ARE NOT NWS OR FAA STATIONS AND ARE NOT UNDER
   NWS QUALITY CONTROL.

LAZ038-040-048-061>063-065>067-069-260200-
SOUTHEAST LOUISIANA

CITY           SKY/WX    TMP DP  RH WIND       PRES   REMARKS
N.O. AUDUBON   NOT AVBL
N.O. INTL ARPT CLEAR     69  57  65 W3        30.08R
N.O. LAKEFRONT CLEAR     74  65  73 W7        30.08R
N.O. DOWNTOWN*   N/A     75  54  46 CALM      30.09R
SLIDELL        CLEAR     63  59  87 CALM      30.07R
BATON ROUGE    CLEAR     63  56  78 CALM      30.09R
BOOTHVILLE     CLEAR     66  56  70 CALM      30.08S
BELLE CHASSE   CLEAR     61  57  87 SW3       30.08R
BOGALUSA*        N/A     65  58  80 CALM      30.09R
NEW ROADS*       N/A     63  58  82 CALM      30.10R
GONZALES*        N/A     62  60  94 CALM      30.09R
HAMMOND*       CLEAR     64  59  82 CALM      30.10R
HOUMA*         CLEAR     63  57  81 CALM      30.09R
PORT FOURCHON* CLEAR     72  59  64 CALM      30.12R

$$

MSZ070-080>082-260200-
SOUTHERN MISSISSIPPI

CITY           SKY/WX    TMP DP  RH WIND       PRES   REMARKS
MCCOMB         CLEAR     68  57  68 NW3       30.09R
GULFPORT       CLEAR     65  59  81 CALM      30.07R
BILOXI         CLEAR     67  62  81 NW1       30.07R
PASCAGOULA     CLEAR     59  57  93 CALM      30.07R
STENNIS ARPT*  CLEAR     66  57  72 W5        30.08R

$$

COASTAL OBSERVATIONS
LAKE AND NEARSHORE STATIONS

STATION/POSITION TIME  TEMP    WIND        PRES    WAVE
                       AIR SEA DIR/SP/G            HT/PER
                 (UTC) (F)     (DEG/KT/KT) (MB)    (FT/S)
PASCAGOULA       0100   70     280/  5/  7 1017.6
WAVELAND YACHT   0100   69     270/  5/  7 1017.6
GRAND ISLE       0100   71 72  210/  2/  2 1019.2
SOUTHWEST PASS   0100   72 80              1019.0
NEW CANAL        0100   74 71  270/  3/  4 1018.9
SHELL BEACH      0100   70 69  260/  4/  5 1018.2

OFFSHORE STATIONS

STATION/POSITION TIME  TEMP    WIND        PRES    WAVE
                       AIR SEA DIR/SP/G            HT/PER
                 (UTC) (F)     (DEG/KT/KT) (MB)    (FT/S)
64 S DAUPHIN ISL 0036   74 78  340/ 12/ 14 1018.5    2/ 6

$$




USA.gov is the U.S. government's official web portal to all federal, state and local government web resources and services.